Regional Weather Roundup
Issued by NWS

Home | Current Version | Previous Version | Text Only | Print | Product List | Glossary On
Versions: 1 2 3 4 5 6 7 8 9 10 11 12 13 14 15 16 17 18 19 20 21 22 23 24 25 26 27
000
ASUS42 KFFC 260103
RWRGA
WEATHER ROUNDUP FOR GEORGIA
NATIONAL WEATHER SERVICE PEACHTREE CITY GA
900 PM EDT WED MAY 25 2016

NOTE: "FAIR" INDICATES FEW OR NO CLOUDS BELOW 12,000 FEET WITH NO
SIGNIFICANT WEATHER AND/OR OBSTRUCTIONS TO VISIBILITY.

* = USE WITH CAUTION. THE STATIONS MARKED WITH AN ASTERISK MAY NOT
REPORT WEATHER SUCH AS PRECIPITATION, FOG, OR THUNDER AND ARE NOT
QUALITY CONTROLLED BY NWS.

THE REMARK "TC" DENOTES TEMPERATURE READING IN DEGREES CELSIUS.

GAZ001>058-260200-
NORTH GEORGIA

CITY           SKY/WX    TMP DP  RH WIND       PRES   REMARKS
ATLANTA        PTCLDY    80  55  42 S6        30.19R
ATHENS         CLEAR     75  58  55 CALM      30.19R
CHAMBLEE       CLEAR     78  56  46 S3        30.19R
PEACHTREE CITY CLEAR     72  61  68 CALM      30.19R
ROME           CLEAR     76  59  55 CALM      30.16R
WEST ATLANTA   CLEAR     80  55  42 S5        30.18R
GAINESVILLE    CLEAR     77  56  48 S3        30.22R
CARTERSVILLE   CLEAR     69  62  78 S3        30.18R


CITY           SKY/WX    TMP DP  RH WIND       PRES   REMARKS
DALTON*        CLEAR     77  59  53 CALM      30.17R
LAWRENCEVILLE* CLEAR     79  55  44 CALM      30.20R
MARIETTA       PTCLDY    79  56  44 S1        30.19R
KENNESAW*      PTCLDY    81  54  39 S3        30.14R
CANTON*        CLEAR     77  52  41 CALM      30.21R
BLAIRSVILLE*     N/A    N/A N/A N/A MISG      30.23R
$$

GAZ059>098-102>109-260200-
CENTRAL GEORGIA

CITY           SKY/WX    TMP DP  RH WIND       PRES   REMARKS
AUGUSTA-BUSH   CLEAR     73  63  70 CALM      30.15R
AUGUSTA-DANIEL CLEAR     83  56  39 S5        30.17R
COLUMBUS       CLEAR     82  59  45 CALM      30.16R
MACON          CLEAR     79  60  52 SE3       30.17R
ROBINS AFB     CLEAR     76  67  73 CALM      30.16R


CITY           SKY/WX    TMP DP  RH WIND       PRES   REMARKS
LAGRANGE*      CLEAR     75  64  68 CALM      30.18R
SYLVANIA*      CLEAR     80  65  59 CALM      30.18R
MILLEDGEVILLE* CLEAR     73  64  73 CALM      30.17S
$$

GAZ099>101-110>166-260200-
SOUTH GEORGIA

CITY           SKY/WX    TMP DP  RH WIND       PRES   REMARKS
SAVANNAH       PTCLDY    75  62  64 S7        30.19R
VALDOSTA       CLEAR     76  63  64 CALM      30.15R
ALMA           CLEAR     77  61  57 SE6       30.16R
ST SIMONS      CLEAR     77  65  66 SE7       30.19R
FT STEWART     CLEAR     77  60  57 SE2       30.17R
ALBANY         CLEAR     81  60  48 CALM      30.17R
HUNTER AFB     CLEAR     76  66  72 SE6       30.16S
MOODY AFB      CLEAR     78  59  51 CALM      30.15R
BRUNSWICK      CLEAR     81  68  65 SE5       30.20R


CITY           SKY/WX    TMP DP  RH WIND       PRES   REMARKS
BAINBRIDGE*    CLEAR     81  64  57 SW5       30.15S
MOULTRIE*      CLEAR     79  64  61 CALM      30.16R
VIDALIA*       CLEAR     79  61  53 CALM      30.17R
WAYCROSS*      CLEAR     79  58  49 SE5       30.17R
DOUGLAS*       CLEAR     79  59  50 CALM      30.18R
$$




USA.gov is the U.S. government's official web portal to all federal, state and local government web resources and services.